Regional Weather Roundup
Issued by NWS Jackson, KY

Home | Current Version | Previous Version | Graphics & Text | Print | Product List | Glossary On
Versions: 1 2 3 4 5 6 7 8 9 10 11 12 13 14 15 16 17 18 19 20 21 22 23 24 25 26 27 28 29 30 31 32 33 34 35 36 37 38 39 40 41 42 43 44 45 46 47 48 49 50
868
ASUS43 KJKL 200510
RWRJKL

EAST KENTUCKY HOURLY WEATHER ROUNDUP
NATIONAL WEATHER SERVICE JACKSON KY
100 AM EDT FRI OCT 20 2017

NOTE: "FAIR" INDICATES FEW OR NO CLOUDS BELOW 12,000 FEET WITH
NO SIGNIFICANT WEATHER AND/OR OBSTRUCTIONS TO VISIBILITY.

* THESE REPORTS ARE NOT UNDER NWS QUALITY CONTROL AND MAY NOT
  REPORT WEATHER SUCH AS PRECIPITATION AND FOG.

KYZ079-080-083-085-087-088-110-112-115-119-120-200600
...EASTERN KENTUCKY...

CITY           SKY/WX    TMP DP  RH WIND       PRES   REMARKS
JACKSON          N/A     54  47  77 CALM      30.27F
LONDON           N/A     47  45  93 CALM      30.28S FOG
SOMERSET*        N/A     46  46 100 CALM      30.29S
MONTICELLO*      N/A     43  42  97 NE8       30.29S
WILLIAMSBURG*    N/A     46  46 100 CALM      30.29R
MIDDLESBORO*     N/A     46  46 100 CALM      30.31S
HARLAN APT*      N/A     46  45  93 CALM      30.31R
PIKE CO APT*     N/A     55  47  72 S5        30.28R
BIG SANDY APT*   N/A     53  49  85 SW3       30.28S
MOREHEAD APT*    N/A     50  48  93 S5        30.28R
$$

KYZ035-036-041-042-044-050-067-078-099-200600
...CENTRAL KENTUCKY...

CITY           SKY/WX    TMP DP  RH WIND       PRES   REMARKS
MT STERLING*     N/A     45  45 100 SW5       30.28R
FLEMING/MASON*   N/A     55  48  77 S6        30.26S
DANVILLE*        N/A     46  45  93 CALM      30.28S
LEXINGTON        N/A     50  46  86 S5        30.26S
FRANKFORT        N/A     50  46  86 CALM      30.25S
LOUISVILLE       N/A     57  52  83 SE6       30.23F
LEBANON*         N/A     55  46  71 CALM      30.26S
GLASGOW*         N/A     48  48 100 CALM      30.25F
BOWLING GREEN    N/A     51  50  96 CALM      30.25S
$$

KYZ091>093-OHZ055-061-077-WVZ005-015-034-035-042-200600
...SOUTHERN OHIO/WEST VIRGINIA...

CITY           SKY/WX    TMP DP  RH WIND       PRES   REMARKS
COVINGTON        N/A     57  52  83 CALM      30.23S
COLUMBUS         N/A     54  50  86 CALM      30.21S
DAYTON           N/A     53  50  89 W6        30.23S
WILMINGTON       N/A     55  51  86 W7        30.23S
HUNTINGTON       N/A     50  47  89 CALM      30.25S
CHARLESTON       N/A     49  46  90 CALM      30.26S
PINEVILLE*       N/A     44  42  93 MISG      30.34S
BECKLEY          N/A     49  39  68 S3        30.29S
BLUEFIELD        N/A     50  37  61 W8        30.31R
LOGAN CO APT*    N/A     52  46  82 CALM      30.27S
$$

VAZ002-007-008-TNZ017-027-036-066-071-200600
...SOUTHWEST VIRGINIA/EAST TENNESSEE...

CITY           SKY/WX    TMP DP  RH WIND       PRES   REMARKS
WISE*            N/A     54  43  66 CALM      30.33S
JONESVILLE*      N/A     43  43 100 CALM      30.32R
ABINGDON*        N/A     48  43  81 CALM      30.31S
BRISTOL          N/A     45  44  97 CALM      30.30S
MORRISTOWN*    CLEAR     48  46  93 CALM      30.28S
SEVIERVILLE*   CLEAR     46  45  93 CALM      30.27S
KNOXVILLE        N/A     53  50  89 CALM      30.26F
LAFOLLETTE*    PTCLDY    46  46 100 CALM      30.32S
OAK RIDGE        N/A     48  48 100 CALM      30.29S
CROSSVILLE       N/A     46  44  93 CALM      30.29S
NASHVILLE        N/A     51  48  89 S5        30.24F
$$

...KEY TO REMARKS...
VSB - VISIBILITY IN MILES
WCI - WIND CHILL INDEX
HX  - HEAT INDEX

$$




USA.gov is the U.S. government's official web portal to all federal, state and local government web resources and services.